User: anonymous   Login
Location: Unspecified
(0.0000°N, 0.0000°E)
Time: 09:45:20
(UTC+01:00)
Language:

Cosmos 1515 Rocket - Orbit

View from above orbital plane
View from above orbital plane
View from above satellite
View from above satellite

Ground track
Ground track

The orbit data is extracted from the following two-line orbital elements,

1 14552U 83122B   16040.84249856  .00000286  00000-0  31971-4 0  9991
2 14552  82.5256 178.4410 0016930 350.8654   9.2250 14.83299003736049
Epoch (UTC): 09 February 2016 20:13:11
Eccentricity: 0.0016930
inclination: 82.5256°
perigee height: 607 km
apogee height: 631 km
right ascension of ascending node: 178.4410°
argument of perigee: 350.8654°
revolutions per day: 14.83299003
mean anomaly at epoch: 9.2250°
orbit number at epoch: 73604

The dashed part of the orbit path shows where the satellite is in the earth's shadow,  

DLR